(54) Alexandra
ephemeris date magn radius delta ra dec elong phase
Today11 May 202514.13.178 AU3.956 AU05h34m+29°13'34.7°10.4°
Opposition4 Feb 202612.33.218 AU2.232 AU09h10m+15°35'179.3°0.2°
(54) Alexandra - 2025-05-11
astro.vanbuitenen.nl


 
-1 year
-1 month
-1 day
Now
+1 day
+1 month
+1 year

The interactive orbit chart above shows the body's path through the solar system and its position at the given date. Green and blue lines are shown perpendicular to the ecliptic plane: Green if the path is above the ecliptic plane, blue if it is below. (Left-click and drag to rotate the view; Right-click and drag to move the view; Use scroll wheel to zoom in our out.)

The orbital elements of Alexandra are:

            e (Eccentricity)                : 0.1972818
            a (Semimajor axis)              : 2.7144119
            i (Inclination)                 : 11.81106
            Ω (Longitude of ascending node) : 313.06012
            ω (Argument of perihelion)      : 345.97112
            M (Mean anomaly)                : 143.00388
            Epoch                           : 2025 May 05

            L (Longitude of perihelion)     : 299.31688
            B (Latitude of perihelion)      : -2.84406
            P (Orbital period in years)     : 4.47            
        

The light curve chart below shows the estimated development of the minor planet's magnitude.


The all-sky chart below shows the path of the minor planet over the same period as the light curve. The current position is marked yellow.





The following chart shows the path of the minor planet in the next few days. The field of view is optimized for (~10x50) binoculars and finderscopes. A more printer-friendly version of the same chart can be found below.




Ephemerides:
Date       Time       RA (2000)    DEC (2000)    delta   radius  elong  phase   PA    magn
2025-05-11 00:00 UT   05 34 46.4   +29 13 53     3.956    3.178   34.7   10.4    79   14.1 
2025-05-11 01:04 UT   05 34 50.5   +29 13 50     3.956    3.178   34.7   10.4    79   14.1 
2025-05-12 00:00 UT   05 36 16.9   +29 12 48     3.965    3.179   34.1   10.3    79   14.1 
2025-05-13 00:00 UT   05 37 47.6   +29 11 41     3.974    3.180   33.4   10.1    79   14.1 
2025-05-14 00:00 UT   05 39 18.4   +29 10 31     3.982    3.181   32.8    9.9    79   14.1 
2025-05-15 00:00 UT   05 40 49.4   +29 09 20     3.991    3.182   32.2    9.7    79   14.1 
2025-05-16 00:00 UT   05 42 20.6   +29 08 07     4.000    3.182   31.6    9.6    79   14.1 
2025-05-17 00:00 UT   05 43 51.9   +29 06 52     4.008    3.183   30.9    9.4    79   14.1 
2025-05-18 00:00 UT   05 45 23.3   +29 05 34     4.016    3.184   30.3    9.2    79   14.1 
2025-05-19 00:00 UT   05 46 54.9   +29 04 15     4.024    3.185   29.7    9.1    79   14.1 
2025-05-20 00:00 UT   05 48 26.6   +29 02 53     4.032    3.186   29.1    8.9    79   14.1 
2025-05-21 00:00 UT   05 49 58.4   +29 01 29     4.040    3.187   28.5    8.7    79   14.1 
2025-05-22 00:00 UT   05 51 30.3   +29 00 03     4.047    3.187   27.8    8.5    78   14.1 
2025-05-23 00:00 UT   05 53 02.4   +28 58 35     4.055    3.188   27.2    8.4    78   14.1 
2025-05-24 00:00 UT   05 54 34.6   +28 57 04     4.062    3.189   26.6    8.2    78   14.1 
2025-05-25 00:00 UT   05 56 06.9   +28 55 31     4.069    3.190   26.0    8.0    78   14.1 
2025-05-26 00:00 UT   05 57 39.3   +28 53 55     4.076    3.191   25.4    7.8    78   14.1 
2025-05-27 00:00 UT   05 59 11.8   +28 52 18     4.083    3.191   24.8    7.6    78   14.1 
2025-05-28 00:00 UT   06 00 44.3   +28 50 38     4.090    3.192   24.2    7.5    78   14.1 
2025-05-29 00:00 UT   06 02 17.0   +28 48 55     4.096    3.193   23.5    7.3    78   14.1 
2025-05-30 00:00 UT   06 03 49.7   +28 47 10     4.103    3.194   22.9    7.1    78   14.1 
2025-05-31 00:00 UT   06 05 22.5   +28 45 23     4.109    3.195   22.3    6.9    77   14.1 
2025-06-01 00:00 UT   06 06 55.4   +28 43 33     4.115    3.195   21.7    6.7    77   14.1 
2025-06-02 00:00 UT   06 08 28.3   +28 41 40     4.121    3.196   21.1    6.6    77   14.1 
2025-06-03 00:00 UT   06 10 01.2   +28 39 45     4.127    3.197   20.5    6.4    77   14.1 
2025-06-04 00:00 UT   06 11 34.2   +28 37 48     4.133    3.198   19.9    6.2    77   14.0 
2025-06-05 00:00 UT   06 13 07.2   +28 35 48     4.138    3.198   19.3    6.0    76   14.0 


    Terminology:
            
    delta:  distance between minor planet and earth in AU
    radius: distance between minor planet and sun in AU
    magn:   magnitude (brightness) estimate    
    ra:     right ascension in hours (24h = 360deg)
    dec:    declination in degrees
    elong:  elongation in degrees (angle sun-earth-minor planet)    
    phase:  phase angle in degrees (angle sun-minor planet-earth)        
    AU:     Astronomical Unit (mean distance between earth and sun: 149597870.7 km
    

Orbital elements provided by the MPC (Minor Planet Center).
Calculations by a modified version of AAPlus, a C# implementation of the AA+ project by PJ Naughter from the algorithms presented in the book "Astronomical Algorithms" by Jean Meeus.
NGC2000 dso catalog and star labels from VizieR as provided by the Strasbourg astronomical Data Center.
Tycho2 catalog from the ESO archive.